Fort Patrick Henry Observed Data For Previous 48 Hours

Caption
Day and Hour Reservoir Elevation (behind dam)* Tailwater Elevation (below dam)* Average Hourly Discharge*
11/11/2018 2 AM EST 1,258.92 1,186.72 115
11/11/2018 3 AM EST 1,258.84 1,191.30 298
11/11/2018 4 AM EST 1,258.81 1,187.97 2,519
11/11/2018 5 AM EST 1,259.09 1,186.48 0
11/11/2018 6 AM EST 1,259.34 1,191.34 299
11/11/2018 7 AM EST 1,259.37 1,192.64 3,336
11/11/2018 8 AM EST 1,259.36 1,192.68 3,340
11/11/2018 9 AM EST 1,259.39 1,192.68 3,341
11/11/2018 10 AM EST 1,259.36 1,192.63 3,334
11/11/2018 11 AM EST 1,259.65 1,186.69 80
11/11/2018 12 PM EST 1,259.86 1,191.35 312
11/11/2018 1 PM EST 1,259.78 1,188.12 2,522
11/11/2018 2 PM EST 1,259.68 1,186.53 0
11/11/2018 3 PM EST 1,259.63 1,191.28 296
11/11/2018 4 PM EST 1,259.57 1,187.92 2,495
11/11/2018 5 PM EST 1,259.52 1,186.51 0
11/11/2018 6 PM EST 1,259.40 1,191.24 296
11/11/2018 7 PM EST 1,259.49 1,192.71 3,428
11/11/2018 8 PM EST 1,259.43 1,192.73 3,432
11/11/2018 9 PM EST 1,259.39 1,192.72 3,444
11/11/2018 10 PM EST 1,259.67 1,186.71 84
11/11/2018 11 PM EST 1,259.57 1,191.30 290
11/12/2018 12 AM EST 1,259.47 1,187.99 2,507
11/12/2018 1 AM EST 1,259.37 1,191.62 319
11/12/2018 2 AM EST 1,259.40 1,193.21 3,944
11/12/2018 3 AM EST 1,259.32 1,193.27 3,995
11/12/2018 4 AM EST 1,259.57 1,186.94 836
11/12/2018 5 AM EST 1,259.74 1,192.39 610
11/12/2018 6 AM EST 1,259.69 1,193.23 4,001
11/12/2018 7 AM EST 1,259.64 1,193.30 4,041
11/12/2018 8 AM EST 1,259.56 1,193.31 4,029
11/12/2018 9 AM EST 1,259.48 1,193.27 4,013
11/12/2018 10 AM EST 1,259.39 1,193.36 4,015
11/12/2018 11 AM EST 1,259.36 1,193.27 4,021
11/12/2018 12 PM EST 1,259.32 1,193.31 4,016
11/12/2018 1 PM EST 1,259.24 1,193.34 4,035
11/12/2018 2 PM EST 1,259.14 1,193.35 4,035
11/12/2018 3 PM EST 1,259.38 1,193.30 3,974
11/12/2018 4 PM EST 1,259.65 1,193.28 3,977
11/12/2018 5 PM EST 1,259.93 1,193.27 3,984
11/12/2018 6 PM EST 1,260.17 1,193.37 4,002
11/12/2018 7 PM EST 1,260.49 1,193.33 3,992
11/12/2018 8 PM EST 1,260.78 1,193.35 4,003
11/12/2018 9 PM EST 1,260.71 1,193.32 3,999
11/12/2018 10 PM EST 1,260.64 1,193.35 3,983
11/12/2018 11 PM EST 1,260.59 1,193.33 3,971
11/13/2018 12 AM EST 1,260.51 1,193.34 3,959
11/13/2018 1 AM EST 1,260.45 1,193.32 3,946
11/13/2018 2 AM EST 1,260.40 1,193.32 3,940
11/13/2018 3 AM EST 1,260.35 1,193.34 3,942
11/13/2018 4 AM EST 1,260.29 1,193.35 3,940
11/13/2018 5 AM EST 1,260.21 1,193.30 3,943
11/13/2018 6 AM EST 1,260.16 1,193.27 3,901
11/13/2018 7 AM EST 1,260.16 1,193.27 3,890
11/13/2018 8 AM EST 1,260.09 1,193.27 3,895
11/13/2018 9 AM EST 1,260.03 1,193.25 3,878
11/13/2018 10 AM EST 1,259.95 1,193.26 3,902

Elevations are in feet above sea level. Discharges are in cubic feet per second and are reported at the end of the hour.